Location: Hurstbourne Priors
(51.2000°N, 1.3667°W)
Time: 15:17:14
(UTC+00:00)

Vanguard 3 - All Passes

Search period start: 19 April 2021 00:00
Search period end: 29 April 2021 00:00
Orbit: 508 x 3262 km, 33.3° (Epoch: 19 April)

Date Brightness Start Highest point End Pass type
(mag) Time Alt. Az. Time Alt. Az. Time Alt. Az.
26 Apr - 00:54:44 10° SSW 00:56:30 11° S 00:58:05 10° SSE night (unlit)
26 Apr - 23:39:35 10° SSW 23:42:54 13° S 23:45:39 10° SSE night (unlit)
27 Apr - 22:24:57 10° SSW 22:29:03 13° S 22:32:24 10° SE visible
28 Apr - 00:36:38 10° SW 00:40:02 14° S 00:42:47 10° SSE night (unlit)
28 Apr - 21:11:12 10° S 21:14:56 12° SSE 21:18:07 10° SE visible
28 Apr - 23:21:11 10° SW 23:26:23 17° S 23:30:18 10° SE visible
